TimeCST,TemperatureF,Dew PointF,Humidity,Sea Level PressureIn,VisibilityMPH,Wind Direction,Wind SpeedMPH,Gust SpeedMPH,PrecipitationIn,Events,Conditions,WindDirDegrees,DateUTC
12:53 AM,41.0,26.1,55,30.40,10.0,SE,3.5,-,N/A,,Clear,140,2012-11-14 06:53:00
1:53 AM,37.0,27.0,67,30.39,10.0,ESE,5.8,-,N/A,,Clear,120,2012-11-14 07:53:00
2:53 AM,37.0,26.1,65,30.41,10.0,Calm,Calm,-,N/A,,Clear,0,2012-11-14 08:53:00
3:53 AM,36.0,26.1,67,30.40,10.0,SSE,4.6,-,N/A,,Clear,150,2012-11-14 09:53:00
4:53 AM,36.0,26.1,67,30.41,10.0,SSE,4.6,-,N/A,,Clear,150,2012-11-14 10:53:00
5:53 AM,35.1,26.1,70,30.42,10.0,SE,4.6,-,N/A,,Clear,140,2012-11-14 11:53:00
6:53 AM,35.1,25.0,67,30.43,10.0,SSE,4.6,-,N/A,,Clear,150,2012-11-14 12:53:00
7:53 AM,37.0,27.0,67,30.44,10.0,SE,4.6,-,N/A,,Clear,140,2012-11-14 13:53:00
8:53 AM,44.1,28.9,55,30.44,10.0,South,8.1,-,N/A,,Clear,190,2012-11-14 14:53:00
9:53 AM,48.0,28.0,46,30.44,10.0,South,4.6,-,N/A,,Clear,180,2012-11-14 15:53:00
10:53 AM,52.0,28.0,40,30.43,10.0,Calm,Calm,-,N/A,,Clear,0,2012-11-14 16:53:00
11:53 AM,54.0,25.0,33,30.40,10.0,Variable,4.6,-,N/A,,Clear,0,2012-11-14 17:53:00
12:53 PM,55.0,23.0,29,30.36,10.0,Calm,Calm,-,N/A,,Clear,0,2012-11-14 18:53:00
1:53 PM,55.9,23.0,28,30.35,10.0,Calm,Calm,-,N/A,,Clear,0,2012-11-14 19:53:00
2:53 PM,55.9,24.1,29,30.34,10.0,West,4.6,-,N/A,,Clear,260,2012-11-14 20:53:00
3:53 PM,55.9,21.9,27,30.32,10.0,Calm,Calm,-,N/A,,Clear,0,2012-11-14 21:53:00
4:53 PM,51.1,26.1,38,30.32,10.0,WSW,3.5,-,N/A,,Clear,250,2012-11-14 22:53:00
5:53 PM,48.0,25.0,41,30.32,10.0,Calm,Calm,-,N/A,,Clear,0,2012-11-14 23:53:00
6:53 PM,39.9,27.0,60,30.32,10.0,ENE,4.6,-,N/A,,Clear,70,2012-11-15 00:53:00
7:53 PM,44.1,26.1,49,30.31,10.0,SE,4.6,-,N/A,,Clear,130,2012-11-15 01:53:00
8:53 PM,45.0,25.0,46,30.31,10.0,SE,4.6,-,N/A,,Clear,140,2012-11-15 02:53:00
9:53 PM,44.1,26.1,49,30.31,10.0,SE,5.8,-,N/A,,Clear,140,2012-11-15 03:53:00
10:53 PM,39.0,27.0,62,30.31,10.0,SSE,4.6,-,N/A,,Clear,160,2012-11-15 04:53:00
11:53 PM,37.0,27.0,67,30.31,10.0,South,5.8,-,N/A,,Clear,170,2012-11-15 05:53:00